Погода в Нежитине

Россия / Костромская область     57°28′45″N   43°17′52″E
темп.,
°C
ветер,
м/с
пор.,
м/с
влажн.,
%
обл.,
%
осадки,
мм/ч
давл.,
гПа
погр.,
м
7 мая, пт
пт700:00+10ююз5128699 0.1 1006685
03:00+9ююз41093100 0.6 1007595
06:00+9зюз3895100 3.4 1008540
09:00+8ююз3592100 4.5 1008378
12:00+9юз4682100 1.6 1010664
15:00+11юз3761100 1.9 10101172
18:00+11з48585 0.1 1011819
21:00+6юз22770 0.1 101312
8 мая, сб
сб800:00+5ю35820 0.0 101574
03:00+4ю3786100 0.0 1016121
06:00+6ююв3978100 0.0 1016243
09:00+12ююв585212 0.0 1015937
12:00+14ю6845100 0.0 10131891
15:00+14ю5952100 0.0 10121873
18:00+12ююв41062100 0.0 1010952
21:00+9юв31186100 0.9 1008523
9 мая, вс
вс900:00+9юв51394100 2.4 1006813
03:00+9ююв51195100 5.6 1005683
06:00+10ююв41097100 0.3 1006540
09:00+10ююв3898100 2.2 1006481
12:00+10ю4898100 1.7 1008437
15:00+11ю3694100 2.4 1010324
18:00+9ююз2597100 2.9 1012274
21:00+7сз4995100 3.5 1015467
10 мая, пн
пн1000:00+6ссз4994100 0.1 1018533
03:00+6ссз41093100 0.1 1021619
06:00+6ссз4109137 0.0 1024514
09:00+10с46652 0.0 1026873
12:00+14ссв45425 0.0 10271353
15:00+15с34368 0.0 10281541
18:00+14с245141 0.0 1028199
21:00+8ссв226712 0.0 103016
11 мая, вт
вт1100:00+7ссв227446 0.0 103121
03:00+6св117643 0.0 103210
06:00+8всв126938 0.0 103281
09:00+15в124891 0.0 1033609
12:00+18ююв124351 0.0 10321221
15:00+20всв1243100 0.0 10301354
18:00+17св1262100 0.0 103033
21:00+12в2275100 0.0 103013